| time (UTC) | temp F | wind direction | speed MPH | gust MPH | rain 1hr in | rain 24hr in | rain mn in | humidity % | barometer mb |
| 20260506204511 | 69 | 212 | 4.0 | 8.0 | 0.00 | 0.10 | 0.10 | 77 | 1010.2 |
| 20260506203009 | 69 | 222 | 3.0 | 8.0 | 0.00 | 0.10 | 0.10 | 78 | 1010.2 |
| 20260506201507 | 69 | 269 | 5.0 | 9.0 | 0.00 | 0.10 | 0.10 | 78 | 1010.4 |
| 20260506200006 | 69 | 215 | 2.0 | 6.0 | 0.00 | 0.10 | 0.10 | 78 | 1010.3 |
| 20260506194501 | 69 | 205 | 4.0 | 14.0 | 0.00 | 0.10 | 0.10 | 78 | 1010.2 |
| 20260506193101 | 69 | 249 | 3.0 | 9.0 | 0.00 | 0.10 | 0.10 | 79 | 1010.5 |
| 20260506191556 | 68 | 231 | 4.0 | 10.0 | 0.00 | 0.10 | 0.10 | 79 | 1010.6 |
| 20260506190054 | 68 | 224 | 5.0 | 10.0 | 0.00 | 0.10 | 0.10 | 78 | 1010.7 |
| 20260506184601 | 68 | 200 | 5.0 | 13.0 | 0.00 | 0.10 | 0.10 | 78 | 1010.8 |
| 20260506183058 | 68 | 197 | 4.0 | 12.0 | 0.00 | 0.10 | 0.10 | 78 | 1011.0 |
| 20260506181542 | 68 | 197 | 5.0 | 10.0 | 0.00 | 0.10 | 0.10 | 79 | 1011.2 |
| 20260506180041 | 67 | 204 | 6.0 | 11.0 | 0.00 | 0.10 | 0.10 | 80 | 1011.3 |
| 20260506174541 | 66 | 217 | 4.0 | 9.0 | 0.00 | 0.10 | 0.10 | 81 | 1011.4 |
| 20260506173034 | 65 | 237 | 4.0 | 14.0 | 0.00 | 0.10 | 0.10 | 82 | 1011.4 |
| 20260506171533 | 65 | 171 | 6.0 | 17.0 | 0.00 | 0.10 | 0.10 | 82 | 1011.6 |
| 20260506170033 | 65 | 244 | 7.0 | 12.0 | 0.00 | 0.10 | 0.10 | 84 | 1011.7 |
| 20260506164528 | 64 | 213 | 5.0 | 11.0 | 0.00 | 0.10 | 0.10 | 85 | 1011.8 |
| 20260506163024 | 64 | 184 | 5.0 | 11.0 | 0.01 | 0.10 | 0.10 | 86 | 1011.5 |
| 20260506161520 | 63 | 220 | 4.0 | 13.0 | 0.02 | 0.10 | 0.10 | 88 | 1011.5 |
| 20260506160019 | 62 | 199 | 3.0 | 10.0 | 0.02 | 0.10 | 0.10 | 89 | 1012.0 |
| 20260506154515 | 62 | 221 | 4.0 | 11.0 | 0.04 | 0.09 | 0.09 | 89 | 1011.9 |
| 20260506153012 | 62 | 217 | 4.0 | 8.0 | 0.08 | 0.09 | 0.09 | 88 | 1012.2 |
| 20260506151511 | 61 | 238 | 3.0 | 7.0 | 0.08 | 0.08 | 0.08 | 89 | 1013.0 |
| 20260506150007 | 61 | 245 | 3.0 | 6.0 | 0.08 | 0.08 | 0.08 | 88 | 1012.9 |
| 20260506144504 | 62 | 245 | 2.0 | 6.0 | 0.05 | 0.05 | 0.05 | 87 | 1013.1 |
| 20260506143109 | 62 | 212 | 3.0 | 8.0 | 0.01 | 0.01 | 0.01 | 84 | 1013.0 |
| 20260506141555 | 62 | 218 | 3.0 | 8.0 | 0.00 | 0.00 | 0.00 | 83 | 1013.1 |
| 20260506140051 | 64 | 224 | 5.0 | 9.0 | 0.00 | 0.00 | 0.00 | 79 | 1013.3 |
| 20260506134547 | 65 | 193 | 3.0 | 7.0 | 0.00 | 0.00 | 0.00 | 76 | 1013.2 |
| 20260506133044 | 65 | 210 | 4.0 | 8.0 | 0.00 | 0.00 | 0.00 | 75 | 1013.1 |
| 20260506131542 | 65 | 215 | 4.0 | 10.0 | 0.00 | 0.00 | 0.00 | 75 | 1013.0 |
| 20260506130041 | 65 | 219 | 5.0 | 10.0 | 0.00 | 0.00 | 0.00 | 75 | 1012.8 |
| 20260506124538 | 65 | 198 | 5.0 | 12.0 | 0.00 | 0.00 | 0.00 | 75 | 1012.8 |
| 20260506123037 | 66 | 211 | 2.0 | 8.0 | 0.00 | 0.00 | 0.00 | 75 | 1013.0 |
| 20260506121534 | 66 | 222 | 5.0 | 12.0 | 0.00 | 0.00 | 0.00 | 74 | 1013.0 |
| 20260506120040 | 66 | 225 | 4.0 | 8.0 | 0.00 | 0.00 | 0.00 | 75 | 1013.0 |
| 20260506114532 | 66 | 181 | 4.0 | 13.0 | 0.00 | 0.00 | 0.00 | 75 | 1012.8 |
| 20260506113030 | 66 | 194 | 6.0 | 12.0 | 0.00 | 0.00 | 0.00 | 75 | 1012.6 |
| 20260506111523 | 65 | 207 | 6.0 | 11.0 | 0.00 | 0.00 | 0.00 | 76 | 1012.5 |
| 20260506110022 | 65 | 230 | 4.0 | 9.0 | 0.00 | 0.00 | 0.00 | 76 | 1012.1 |
| 20260506104520 | 65 | 205 | 5.0 | 11.0 | 0.00 | 0.00 | 0.00 | 76 | 1012.2 |
| 20260506103018 | 65 | 217 | 4.0 | 8.0 | 0.00 | 0.00 | 0.00 | 77 | 1012.2 |
| 20260506101515 | 65 | 204 | 4.0 | 9.0 | 0.00 | 0.00 | 0.00 | 77 | 1012.0 |
| 20260506100012 | 65 | 203 | 6.0 | 14.0 | 0.00 | 0.00 | 0.00 | 76 | 1012.1 |
| 20260506094508 | 65 | 203 | 4.0 | 11.0 | 0.00 | 0.00 | 0.00 | 76 | 1012.2 |
| 20260506093005 | 65 | 176 | 5.0 | 8.0 | 0.00 | 0.00 | 0.00 | 76 | 1012.4 |
| 20260506091507 | 66 | 198 | 5.0 | 11.0 | 0.00 | 0.00 | 0.00 | 75 | 1012.5 |
| 20260506090103 | 66 | 200 | 3.0 | 11.0 | 0.00 | 0.00 | 0.00 | 75 | 1012.4 |
| 20260506084614 | 66 | 166 | 4.0 | 12.0 | 0.00 | 0.00 | 0.00 | 74 | 1012.4 |
| 20260506083051 | 67 | 237 | 5.0 | 12.0 | 0.00 | 0.00 | 0.00 | 74 | 1012.5 |
| 20260506081547 | 67 | 194 | 7.0 | 11.0 | 0.00 | 0.00 | 0.00 | 73 | 1012.3 |
| 20260506073038 | 68 | 245 | 4.0 | 10.0 | 0.00 | 0.00 | 0.00 | 72 | 1012.6 |
| 20260506071532 | 68 | 208 | 5.0 | 14.0 | 0.00 | 0.00 | 0.00 | 71 | 1012.7 |
| 20260506061539 | 70 | 212 | 5.0 | 12.0 | 0.00 | 0.00 | 0.00 | 67 | 1012.9 |
| 20260506050110 | 72 | 166 | 4.0 | 13.0 | 0.00 | 0.00 | 0.00 | 61 | 1013.4 |
| 20260506044655 | 72 | 219 | 4.0 | 10.0 | 0.00 | 0.00 | 0.00 | 59 | 1013.4 |
| 20260506043052 | 73 | 223 | 3.0 | 11.0 | 0.00 | 0.00 | 0.00 | 58 | 1013.4 |
| 20260506041543 | 73 | 210 | 6.0 | 15.0 | 0.00 | 0.00 | 0.00 | 57 | 1013.3 |
| 20260506040039 | 73 | 212 | 5.0 | 13.0 | 0.00 | 0.00 | 0.00 | 56 | 1013.3 |
| 20260506034541 | 73 | 215 | 5.0 | 12.0 | 0.00 | 0.00 | 0.00 | 56 | 1013.1 |
| 20260506033038 | 73 | 178 | 6.0 | 14.0 | 0.00 | 0.00 | 0.00 | 54 | 1013.0 |
| 20260506031543 | 73 | 240 | 6.0 | 12.0 | 0.00 | 0.00 | 0.00 | 54 | 1012.9 |
| 20260506030031 | 74 | 155 | 5.0 | 14.0 | 0.00 | 0.00 | 0.00 | 53 | 1012.9 |
| 20260506024540 | 74 | 217 | 5.0 | 9.0 | 0.00 | 0.00 | 0.00 | 52 | 1013.1 |
| 20260506023024 | 74 | 220 | 4.0 | 11.0 | 0.00 | 0.00 | 0.00 | 50 | 1013.3 |
| 20260506021523 | 75 | 202 | 3.0 | 10.0 | 0.00 | 0.00 | 0.00 | 49 | 1013.2 |
| 20260506020020 | 75 | 194 | 5.0 | 11.0 | 0.00 | 0.00 | 0.00 | 47 | 1013.3 |
| 20260506014522 | 75 | 236 | 4.0 | 14.0 | 0.00 | 0.00 | 0.00 | 44 | 1013.1 |
| 20260506013017 | 76 | 199 | 3.0 | 7.0 | 0.00 | 0.00 | 0.00 | 42 | 1012.9 |
| 20260506011514 | 76 | 190 | 5.0 | 9.0 | 0.00 | 0.00 | 0.00 | 41 | 1012.7 |
| 20260506010013 | 77 | 201 | 6.0 | 11.0 | 0.00 | 0.00 | 0.00 | 40 | 1012.4 |
| 20260506004511 | 77 | 207 | 5.0 | 9.0 | 0.00 | 0.00 | 0.00 | 39 | 1012.4 |
| 20260506003109 | 78 | 222 | 4.0 | 10.0 | 0.00 | 0.00 | 0.00 | 40 | 1012.2 |
| 20260506001507 | 78 | 186 | 5.0 | 9.0 | 0.00 | 0.00 | 0.00 | 39 | 1012.0 |
| 20260506000007 | 79 | 221 | 5.0 | 9.0 | 0.00 | 0.00 | 0.00 | 37 | 1011.9 |
| 20260505234503 | 80 | 212 | 5.0 | 11.0 | 0.00 | 0.00 | 0.00 | 36 | 1011.9 |
| 20260505233100 | 80 | 205 | 5.0 | 10.0 | 0.00 | 0.00 | 0.00 | 36 | 1011.8 |
| 20260505231700 | 81 | 234 | 5.0 | 11.0 | 0.00 | 0.00 | 0.00 | 34 | 1011.8 |
| 20260505230055 | 81 | 217 | 5.0 | 11.0 | 0.00 | 0.00 | 0.00 | 34 | 1011.7 |
| 20260505224554 | 81 | 226 | 3.0 | 9.0 | 0.00 | 0.00 | 0.00 | 35 | 1011.7 |
| 20260505223101 | 81 | 213 | 5.0 | 15.0 | 0.00 | 0.00 | 0.00 | 33 | 1011.8 |
| 20260505221556 | 82 | 205 | 8.0 | 14.0 | 0.00 | 0.00 | 0.00 | 32 | 1011.8 |
| 20260505220051 | 82 | 219 | 4.0 | 10.0 | 0.00 | 0.00 | 0.00 | 32 | 1011.8 |
| 20260505214603 | 82 | 236 | 5.0 | 12.0 | 0.00 | 0.00 | 0.00 | 32 | 1011.8 |
| 20260505213041 | 82 | 213 | 3.0 | 11.0 | 0.00 | 0.00 | 0.00 | 34 | 1011.6 |
| 20260505211640 | 83 | 207 | 5.0 | 15.0 | 0.00 | 0.00 | 0.00 | 34 | 1011.4 |
| 20260505210038 | 83 | 217 | 5.0 | 11.0 | 0.00 | 0.00 | 0.00 | 35 | 1011.3 |